CZ-4C DEB, 43266

Orbit data source: Space-Track

CZ-4C DEB, 43266 is space debris in SSO originally from a launch on Sat, 31 Mar 2018 UTC launched from the Taiyaun Space Center, China (TSC). Debris objects in space refer to the collection of defunct objects orbiting the Earth. Examples of debris include non-operational satellites, rocket bodies, and fragments generated from explosions, collisions, or faulty payload assembly.

Loading next visibility...
Identifier
43266, 2018-031H
Orbit
SSO
Country
Flag of CNCN / PRC
Related business
Manufacturer
Unknown
Mission
Spacecraft
Bus & Motor
Unknown
Mass
Unknown
Launch date (UTC)
2018-03-31 (8 years ago)
Launch vehicle
Unknown
Launch site
Taiyaun Space Center, China (TSC)
Object type
Payload
Rocket body
Debris
Shape & HBR
Unknown shape, 0.1 m
Radar Cross Section
Small (<0.1 m²)

Expand to show TLE details & history
Last TLE update: 22 hours ago

TLE from 22 hours ago
0 CZ-4C DEB
1 43266U 18031H   26034.44354734  .00012171  00000-0  68703-3 0  9992
2 43266  98.1606 206.5404 0021107  29.3679 330.8731 15.13116939426524
Epoch: 2026-02-03T10:38Z
TLE epoch observation values (Epoch: 2026-02-03T10:38:42.490Z)
Latitude
-0.00006°
Longitude
-86.76104°
Altitude
517.033 km
Speed
7.612 km/s
True Right ascension
13h 46m 09s
True Declination
0° 00' 00"
Sunlit
Object was in daylight at epoch
Visualization orbit readout
Latitude
Unknown
Longitude
Unknown
Altitude
Unknown
Speed
Unknown
Apparent Right ascension
Unknown
Apparent Declination
Unknown
Sunlit
N/A
Visualization observer readout
Local Sidereal Time
10:08:41
Azimuth
Unknown
Elevation
Unknown
Doppler factor
Unknown
Orbital elements
Apogee altitude
538.278 km
Perigee altitude
509.142 km
Semi-major axis
6,901.847 km
Eccentricity
0.00211
Inclination
98.1606°
RAAN
206.5404°
Arg. of periapsis
29.3679°
True anomaly
330.7551°
Mean anomaly
330.8731°
Eccentric anomaly
330.81413°
Mean motion
3.78526 °/min
Orbital period
95.11 mins
BSTAR
0.00068703
Loading maneuver chart data...
Computing Atmospheric mass density...
Loading historical data...
Loading historical data...
Loading historical data...
Loading historical data...
Loading historical data...
Loading historical data...
Loading historical data...

Documentation

Showing up to 5 results
|